This demonstration page uses our WeatherBlox Daily Observations layout. Learn more.

Hourly Observations for March 30, 2019

Temp ( °F °C ) Dew Point ( °F °C ) Humidity (%) Winds ( mph kmh ) Pressure ( in mb ) Visibility ( mi km ) Precip ( " mm )
12:15 am 00:15 Cloudy 32 -0.1 29 -1.7 89 89 N 12 19 30.24 1024 10 16.09344 0 0
12:35 am 00:35 Cloudy 32 0 29 -1.5 90 90 N 12 19 30.24 1024 10 16.09344 0 0
12:55 am 00:55 Cloudy 32 0 29 -1.6 89 89 N 13 20 30.24 1024 10 16.09344 0 0
1:15 am 01:15 Cloudy 32 0 29 -1.5 90 90 N 13 20 30.24 1024 10 16.09344 0 0
1:35 am 01:35 Cloudy 32 0 30 -1.3 91 91 NNW 12 19 30.24 1024 10 16.09344 0 0
1:55 am 01:55 Cloudy with Light Snow 32 0.1 30 -1.2 91 91 NNW 12 19 30.24 1024 10 16.09344 0 0
2:15 am 02:15 Cloudy with Light Snow 32 0.2 30 -1.1 91 91 NNW 13 20 30.27 1025 7 11.265408 0 0
2:35 am 02:35 Cloudy with Light Snow 33 0.3 30 -1.1 90 90 NNW 12 19 30.24 1024 7 11.265408 0 0
2:55 am 02:55 Cloudy 32 0.2 30 -1.1 91 91 NW 12 19 30.24 1024 10 16.09344 0 0
3:15 am 03:15 Cloudy 32 0.1 30 -1.2 91 91 NW 10 17 30.24 1024 10 16.09344 0 0
3:35 am 03:35 Cloudy 32 0.1 29 -1.5 89 89 NW 12 19 30.27 1025 10 16.09344 0 0
3:55 am 03:55 Cloudy 32 0.1 29 -1.7 88 88 NW 14 22 30.27 1025 10 16.09344 0 0
4:15 am 04:15 Cloudy 32 0.2 28 -2 85 85 NW 14 22 30.27 1025 10 16.09344 0 0
4:35 am 04:35 Cloudy 33 0.3 28 -2 85 85 NNW 14 22 30.27 1025 10 16.09344 0 0
4:55 am 04:55 Cloudy 33 0.5 29 -1.7 85 85 NNW 13 20 30.27 1025 10 16.09344 0 0
5:15 am 05:15 Cloudy 33 0.5 29 -1.7 85 85 NW 13 20 30.27 1025 10 16.09344 0 0
5:35 am 05:35 Mostly Cloudy 33 0.5 29 -1.6 86 86 NW 13 20 30.27 1025 10 16.09344 0 0
5:55 am 05:55 Mostly Cloudy 33 0.6 29 -1.5 86 86 NNW 14 22 30.27 1025 10 16.09344 0 0
6:15 am 06:15 Cloudy 33 0.7 30 -1.2 87 87 NNW 13 20 30.3 1026 10 16.09344 0 0
6:35 am 06:35 Cloudy 34 1.1 30 -0.9 87 87 NNW 15 24 30.3 1026 10 16.09344 0.01 0.254
6:55 am 06:55 Cloudy 34 1.2 31 -0.8 87 87 N 13 20 30.33 1027 10 16.09344 0.01 0.254
7:15 am 07:15 Cloudy 34 1.1 30 -1 86 86 N 21 33 30.33 1027 10 16.09344 0 0
7:35 am 07:35 Cloudy 34 1 30 -1.2 85 85 N 18 30 30.36 1028 10 16.09344 0 0
7:55 am 07:55 Cloudy 33 0.8 29 -1.5 85 85 N 17 28 30.36 1028 10 16.09344 0 0
8:15 am 08:15 Cloudy 33 0.6 29 -1.5 86 86 N 14 22 30.39 1029 10 16.09344 0 0
8:35 am 08:35 Mostly Cloudy 33 0.5 28 -2 84 84 N 15 24 30.39 1029 10 16.09344 0 0
8:55 am 08:55 Mostly Cloudy 33 0.6 29 -1.9 84 84 N 15 24 30.39 1029 10 16.09344 0 0
9:15 am 09:15 Partly Cloudy 33 0.5 27 -2.9 78 78 N 23 37 30.45 1031 10 16.09344 0 0
9:35 am 09:35 Sunny 32 0 26 -3.4 78 78 N 20 31 30.45 1031 10 16.09344 0 0
9:55 am 09:55 Partly Cloudy 32 0.2 27 -3 79 79 N 21 33 30.45 1031 10 16.09344 0 0
10:15 am 10:15 Partly Cloudy 32 0.2 26 -3.4 77 77 N 17 28 30.48 1032 10 16.09344 0 0
10:35 am 10:35 Partly Cloudy 32 0 23 -4.8 70 70 N 22 35 30.48 1032 10 16.09344 0 0
10:55 am 10:55 Partly Cloudy 32 0 24 -4.7 71 71 N 22 35 30.48 1032 10 16.09344 0 0
11:15 am 11:15 Partly Cloudy 32 0.1 24 -4.5 72 72 N 23 37 30.5 1033 10 16.09344 0 0
11:35 am 11:35 Partly Cloudy 33 0.3 24 -4.5 70 70 N 22 35 30.5 1033 10 16.09344 0 0
11:55 am 11:55 Sunny 32 0.1 23 -4.8 70 70 N 22 35 30.5 1033 10 16.09344 0 0
12:15 pm 12:15 Partly Cloudy 33 0.3 23 -4.9 68 68 N 21 33 30.5 1033 10 16.09344 0 0
12:35 pm 12:35 Partly Cloudy 33 0.6 25 -3.9 72 72 N 21 33 30.5 1033 10 16.09344 0 0
12:55 pm 12:55 Partly Cloudy 33 0.7 25 -4 71 71 N 20 31 30.5 1033 10 16.09344 0 0
1:15 pm 13:15 Mostly Cloudy 33 0.7 24 -4.2 70 70 N 22 35 30.5 1033 10 16.09344 0 0
1:35 pm 13:35 Partly Cloudy 34 1 25 -4 70 70 N 25 41 30.5 1033 10 16.09344 0 0
1:55 pm 13:55 Mostly Cloudy 34 1.3 25 -3.7 70 70 NNW 22 35 30.48 1032 10 16.09344 0 0
2:15 pm 14:15 Mostly Cloudy 34 1.1 23 -4.8 65 65 N 21 33 30.48 1032 10 16.09344 0 0
2:35 pm 14:35 Mostly Cloudy 35 1.6 25 -4.1 66 66 N 21 33 30.48 1032 10 16.09344 0 0
2:55 pm 14:55 Mostly Cloudy 35 1.5 23 -4.8 63 63 N 21 33 30.48 1032 10 16.09344 0 0
3:15 pm 15:15 Mostly Cloudy 35 1.7 24 -4.7 63 63 N 20 31 30.48 1032 10 16.09344 0 0
3:35 pm 15:35 Mostly Cloudy 36 2.1 24 -4.7 61 61 N 17 28 30.48 1032 10 16.09344 0 0
3:55 pm 15:55 Mostly Cloudy 35 1.9 23 -5 61 61 N 18 30 30.48 1032 10 16.09344 0 0
4:15 pm 16:15 Cloudy 36 2.2 23 -5.1 59 59 NNW 17 28 30.48 1032 10 16.09344 0 0
4:35 pm 16:35 Cloudy 35 1.7 22 -5.5 59 59 NNW 18 30 30.48 1032 10 16.09344 0 0
4:55 pm 16:55 Mostly Cloudy 35 1.8 22 -5.4 59 59 NNW 16 26 30.45 1031 10 16.09344 0 0
5:15 pm 17:15 Mostly Cloudy 35 1.8 22 -5.6 58 58 N 14 22 30.45 1031 10 16.09344 0 0
5:35 pm 17:35 Mostly Cloudy 35 1.6 21 -6 57 57 NNW 16 26 30.45 1031 10 16.09344 0 0
5:55 pm 17:55 Mostly Cloudy 36 2.1 21 -6 55 55 N 15 24 30.45 1031 10 16.09344 0 0
6:15 pm 18:15 Cloudy 36 2.2 21 -6 55 55 NNW 15 24 30.45 1031 10 16.09344 0 0
6:35 pm 18:35 Mostly Cloudy 36 2 21 -6.2 55 55 NNW 15 24 30.45 1031 10 16.09344 0 0
6:55 pm 18:55 Mostly Cloudy 35 1.7 22 -5.8 58 58 NNW 13 20 30.45 1031 10 16.09344 0 0
7:15 pm 19:15 Partly Cloudy 35 1.7 21 -6.2 56 56 N 10 17 30.45 1031 10 16.09344 0 0
7:35 pm 19:35 Partly Cloudy 35 1.4 22 -5.4 61 61 NW 8 13 30.45 1031 10 16.09344 0 0
7:55 pm 19:55 Sunny 33 0.6 22 -5.3 65 65 NW 7 11 30.48 1032 10 16.09344 0 0
8:15 pm 20:15 Clear 32 0 24 -4.7 71 71 NW 7 11 30.48 1032 10 16.09344 0 0
8:35 pm 20:35 Clear 31 -0.6 23 -4.8 74 74 NW 6 9 30.48 1032 10 16.09344 0 0
8:55 pm 20:55 Clear 30 -1.2 24 -4.7 77 77 WNW 6 9 30.5 1033 10 16.09344 0 0
9:15 pm 21:15 Clear 30 -1 25 -4.1 80 80 WNW 5 7 30.5 1033 10 16.09344 0 0
9:35 pm 21:35 Clear 30 -1 25 -4 80 80 WNW 5 7 30.5 1033 10 16.09344 0 0
9:55 pm 21:55 Clear 30 -1.3 25 -3.9 83 83 WNW 5 7 30.5 1033 10 16.09344 0 0
10:15 pm 22:15 Clear 29 -1.5 25 -4 83 83 WNW 6 9 30.5 1033 10 16.09344 0 0
10:35 pm 22:35 Clear 30 -1.3 25 -4 82 82 WNW 6 9 30.5 1033 10 16.09344 0 0
10:55 pm 22:55 Clear 29 -1.7 25 -4.1 84 84 WNW 6 9 30.5 1033 10 16.09344 0 0
11:15 pm 23:15 Clear 29 -1.5 25 -4.1 83 83 WNW 7 11 30.5 1033 10 16.09344 0 0
11:35 pm 23:35 Clear 29 -1.9 24 -4.2 84 84 WNW 6 9 30.53 1034 10 16.09344 0 0
11:55 pm 23:55 Clear 28 -2.2 24 -4.5 84 84 WNW 6 9 30.53 1034 10 16.09344 0 0

Powered by AerisWeather